User: anonymous   Login
Location: Granada
(37.1830°N, 3.6000°W)
Time: 17:39:34
(UTC+01:00)
Language:

Iridium 70 - Orbit

View from above orbital plane
View from above orbital plane
View from above satellite
View from above satellite

Ground track
Ground track

The orbit data is extracted from the following two-line orbital elements,

1 25342U 98032A   15031.57697396  .00000144  00000-0  44458-4 0  1439
2 25342 086.3943 226.8299 0001881 103.6222 312.7317 14.34217922874742
Epoch (UTC): 31 January 2015 13:50:50
Eccentricity: 0.0001881
inclination: 86.3943°
perigee height: 776 km
apogee height: 779 km
right ascension of ascending node: 226.8299°
argument of perigee: 103.6222°
revolutions per day: 14.34217922
mean anomaly at epoch: 312.7317°
orbit number at epoch: 87474

The dashed part of the orbit path shows where the satellite is in the earth's shadow,  

DLR